Погода в Кондратьеве

Россия / Санкт-Петербург и Ленинградская область     60°38′14″N   28°09′20″E
темп.,
°C
ветер,
м/с
пор.,
м/с
влажн.,
%
обл.,
%
осадки,
мм/ч
давл.,
гПа
погр.,
м
31 июля, сб
сб3100:00+15ююз4119195 1.1 994499
03:00+14ю3897100 3.7 991513
06:00+14в1296100 3.1 99158
09:00+16зсз358770 3.3 993577
12:00+19зсз466658 0.8 9951320
15:00+22з465293 2.1 9971840
18:00+22зюз374799 0.0 9982014
21:00+18ююз377137 0.0 999289
1 августа, вс
вс100:00+14юз26975 0.1 1000134
03:00+15юз389710 0.1 1000244
06:00+15ююз289898 0.0 1000340
09:00+19ююз4773100 0.0 999803
12:00+20ююз587195 1.6 9991052
15:00+22ююз6105629 1.9 9981536
18:00+18юз498825 1.2 998811
21:00+17юз5128945 1.8 999769
2 августа, пн
пн200:00+15зюз512875 0.0 1001643
03:00+14зюз310860 0.0 1002441
06:00+14юз3109330 0.1 1002410
09:00+19юз4666100 0.1 1002965
12:00+21ююз4554100 0.0 10021477
15:00+21ю3452100 0.0 10011227
18:00+20ю2352100 0.0 1000711
21:00+16юз227494 0.0 100036
3 августа, вт
вт300:00+13зюз229119 0.3 100026
03:00+13зюз269466 0.6 999146
06:00+12з24964 0.0 99999
09:00+17з34730 0.0 999613
12:00+21з344966 0.1 10001849
15:00+19зсз665736 0.4 10021365
18:00+16зсз4669100 0.0 10051026
21:00+15зсз377293 0.1 1007694
4 августа, ср
ср400:00+11з387943 0.0 1008218
03:00+9зсз278312 0.0 1010127
06:00+11зсз257174 0.0 1011134
09:00+16зсз24495 0.0 1013547
12:00+20зюз243446 0.0 10132503
15:00+18ююз4647100 0.0 1014880
18:00+19юз334038 0.0 10141100
21:00+14юз23646 0.0 101549